Regional Weather Roundup
Issued by NWS New Orleans/Baton Rouge, LA

Home | Current Version | Previous Version | Text Only | Print | Product List | Glossary On
Versions: 1 2 3 4 5 6 7 8 9 10 11 12 13 14 15 16 17 18 19 20 21 22 23 24 25 26 27 28 29 30 31 32 33 34 35 36 37 38 39 40 41 42 43 44 45 46 47 48 49 50
917
ASUS44 KLIX 281410
RWRLIX
NEW ORLEANS REGIONAL WEATHER ROUNDUP
NATIONAL WEATHER SERVICE NEW ORLEANS LA
800 AM CST WED JAN 28 2015

NOTE: "FAIR" INDICATES FEW OR NO CLOUDS BELOW 12,000 FEET WITH NO
      SIGNIFICANT WEATHER AND/OR OBSTRUCTIONS TO VISIBILITY.
      SKY/WX - SKY CONDITION AND SIGNIFICANT WEATHER.
      TMP - AIR TEMPERATURE.     DP    - DEWPOINT TEMPERATURE.
      RH  - RELATIVE HUMIDITY.   PRES  - PRESSURE.
      HI  - HEAT INDEX.          WCI   - WIND CHILL INDEX.

*  THESE STATIONS ARE NOT NWS OR FAA STATIONS AND ARE NOT UNDER
   NWS QUALITY CONTROL.

LAZ038-040-048-061>063-065>067-069-281500-
SOUTHEAST LOUISIANA

CITY           SKY/WX    TMP DP  RH WIND       PRES   REMARKS
N.O. AUDUBON     N/A     53  42  67 MISG        N/A
N.O. INTL ARPT SUNNY     51  36  56 E10       30.27R
N.O. LAKEFRONT SUNNY     52  38  58 E13       30.28R
N.O. DOWNTOWN*   N/A     50  36  57 NE5       30.27R
SLIDELL        SUNNY     46  36  68 VRB6      30.27R
BATON ROUGE    SUNNY     45  38  76 E3        30.26R
BOOTHVILLE     SUNNY     53  47  79 NE8       30.27R
BELLE CHASSE   SUNNY     51  41  68 E9        30.26R
BOGALUSA*        N/A     38  36  90 CALM      30.29S
GALLIANO*      SUNNY     54  44  68 MISG      30.27R
NEW ROADS*       N/A     47  38  71 E6        30.26R
GONZALES*        N/A     49  41  75 CALM      30.26R
HAMMOND*       SUNNY     48  36  61 E5        30.29R
HOUMA*         SUNNY     46  43  87 NE7       30.26R
PORT FOURCHON* SUNNY     55  48  76 NE10      30.29R

$$

MSZ070-080>082-281500-
SOUTHERN MISSISSIPPI

CITY           SKY/WX    TMP DP  RH WIND       PRES   REMARKS
MCCOMB         SUNNY     44  35  70 E5        30.27R
GULFPORT       SUNNY     46  35  65 NE6       30.29R
BILOXI         SUNNY     45  37  71 NE6       30.29R
PASCAGOULA     SUNNY     44  37  76 N3        30.30R
STENNIS ARPT*  SUNNY     45  32  61 CALM      30.29R

$$

COASTAL OBSERVATIONS
LAKE AND NEARSHORE STATIONS

STATION/POSITION TIME  TEMP    WIND        PRES    WAVE
                       AIR SEA DIR/SP/G            HT/PER
                 (UTC) (F)     (DEG/KT/KT) (MB)    (FT/S)
PASCAGOULA       1400   45      30/  5/  7 1025.2
WAVELAND YACHT   1400   48      70/ 10/ 11 1024.7
GRAND ISLE       1400   56 59   70/ 12/ 14 1024.9
SOUTHWEST PASS   1400   54 45   40/ 11/ 12 1024.6
NEW CANAL        1400   50 53   80/ 10/ 14 1025.2
SHELL BEACH      1400   52 53   70/ 12/ 14 1024.8

OFFSHORE STATIONS

STATION/POSITION TIME  TEMP    WIND        PRES    WAVE
                       AIR SEA DIR/SP/G            HT/PER
                 (UTC) (F)     (DEG/KT/KT) (MB)    (FT/S)
64 S DAUPHIN ISL 1302   60 67   50/ 14/ 16 1024.8    3/ 5

$$




USA.gov is the U.S. government's official web portal to all federal, state and local government web resources and services.